Regional Weather Roundup
Issued by NWS Upton, NY

Home | Current Version | Previous Version | Text Only | Print | Product List | Glossary On
Versions: 1 2 3 4 5 6 7 8 9 10 11 12 13 14 15 16 17 18 19 20 21 22 23 24 25 26 27
000
ASUS41 KOKX 290405
RWROKX

REGIONAL WEATHER ROUNDUP
NATIONAL WEATHER SERVICE NEW YORK NY
1200 AM EDT FRI JUL 29 2016

NOTE: "FAIR" INDICATES FEW OR NO CLOUDS BELOW 12,000 FEET WITH NO
SIGNIFICANT WEATHER AND/OR OBSTRUCTIONS TO VISIBILITY.

NYZ071-072-176-178-NJZ106-104-290500-
NEW YORK CITY METRO AREA

CITY           SKY/WX    TMP DP  RH WIND       PRES   REMARKS
Central Park   CLOUDY    77  70  79 CALM      29.90F HAZE
LaGuardia APRT LGT RAIN  80  71  74 N10       29.86F
Kennedy INTL   CLOUDY    81  66  60 NW6       29.88R
Newark/Liberty LGT RAIN  78  72  81 N7        29.87S
Bronx Bot Gard   N/A     77  70  78 N2        29.90R
Wall St Helipt CLOUDY    79  72  78 CALM      29.88S
Teterboro      LGT RAIN  78  70  76 CALM      29.86F
$$

NYZ177-179-078>081-290500-
LONG ISLAND NEW YORK

CITY           SKY/WX    TMP DP  RH WIND       PRES   REMARKS
Farmingdale    CLOUDY    79  69  71 N5        29.87S
MacArthur/ISP  CLOUDY    78  69  73 N5        29.87S
Shirley        CLOUDY    76  72  87 CALM      29.88S
Riverhead      NOT AVBL
Westhampton    PTCLDY    76  74  93 SW3       29.89S FOG
Southhampton     N/A     75  75 100 SW2       29.84S
Bridgehampton    N/A     75  75 100 CALM      29.86F
East Hampton   CLOUDY    75  74  97 CALM      29.87F FOG
Montauk          N/A     75  75 100 CALM      29.89F
$$

NYZ052-065-067-290500-
HUDSON VALLEY

CITY           SKY/WX    TMP DP  RH WIND       PRES   REMARKS
White Plains   CLOUDY    76  71  85 NW5       29.88F
Newburgh       DRIZZLE   72  72 100 W7        29.92S
Montgomery     CLOUDY    72  71  97 CALM      29.90F FOG
Poughkeepsie   CLOUDY    75  71  87 S5        29.88S
Albany         CLOUDY    73  66  78 N3        29.89R
$$

NJZ001-105-106-008-010-013-015-019>022-104-290500-
NEW JERSEY

CITY           SKY/WX    TMP DP  RH WIND       PRES   REMARKS
Newark/Liberty LGT RAIN  78  72  81 N7        29.87S
Teterboro      LGT RAIN  78  70  76 CALM      29.86F
Caldwell       LGT RAIN  76  73  91 CALM      29.88F
Morristown     LGT RAIN  73  70  88 CALM      29.87F
Somerville     LGT RAIN  75  73  93 CALM      29.85F FOG
Linden         DRIZZLE   78  71  81 CALM      29.89F
Sussex         LGT RAIN  73  72  96 NE5       29.89F FOG
Abdover          N/A     73  71  93 CALM      29.89F
Trenton        CLOUDY    75  71  87 NE3       29.85F
Millville      LGT RAIN  74  72  93 SE3       29.85F FOG
Atlantic City  CLOUDY    74  72  93 E3        29.87F
Wrightstown    NOT AVBL
Toms River     CLOUDY    73  72  96 CALM      29.87F
Belmar         CLOUDY    73  71  93 NW3       29.88F
$$

PAZ047>061-062-071-290500-
EASTERN PENNSYLVANIA

CITY           SKY/WX    TMP DP  RH WIND       PRES   REMARKS
Philadelphia   NOT AVBL
Allentown      PTCLDY    74  72  93 CALM      29.87F FOG
Scranton       LGT RAIN  72  69  90 CALM      29.91F FOG
$$

CTZ002-004>006-009-010-012-RIZ004-006-007-MAZ004-011-015-290500-
SOUTHERN NEW ENGLAND
 IN CT

CITY           SKY/WX    TMP DP  RH WIND       PRES   REMARKS
Bradley INTL   CLOUDY    80  67  64 S6        29.87F
Hartford       CLOUDY    81  72  74 S6        29.86S
Danbury        CLOUDY    74  70  87 CALM      29.91R
Wtrbury/Oxford   N/A     75  64  69 NW3       29.92F
Bridgeport     CLOUDY    81  69  67 NW5       29.86F
Meriden        CLOUDY    78  70  76 CALM      29.87F
New Haven      PTCLDY    77  72  84 CALM      29.87F
Chester        FAIR      77  73  88 CALM      29.89F
Groton         CLOUDY    77  73  87 CALM      29.87F
Wilimantic     CLOUDY    78  73  84 S5        29.89S

 IN RI

CITY           SKY/WX    TMP DP  RH WIND       PRES   REMARKS
Providence     CLOUDY    76  73  91 S7        29.89S
Block Island   CLOUDY    76  75  97 SW6       29.89F FOG
Westerly       FOG       74  71  91 CALM      29.89S VSB 1/2
 IN MA

CITY           SKY/WX    TMP DP  RH WIND       PRES   REMARKS
Boston         CLOUDY    78  72  81 S8        29.86R
Worchester     CLOUDY    73  67  81 SW5       29.91F
Westfield      CLOUDY    81  64  56 SW5       29.87R
Provincetown   CLOUDY    74  72  93 S8        29.88F
Nantucket      CLOUDY    70  69  97 SE6       29.90F
$$

ANZ330-335-338-340-345-350-353-355-290500-
COASTAL MARINE OBSERVATIONS


STATION/POSITION TIME  SKY/WX   TEMP    WIND        PRES    VSBY  WAVE
                                AIR SEA DIR/SP/G                  HT/PER
                 (UTC)          (F)     (DEG/KT/KT) (MB)    (MI)  (FT/S)
NY HARB ENTRANCE 0250            74 74  310/  6/  6 1011.1          1/ 3
20S FIRE ISLAND  0250            78 78     CALM     1010.8          1/ 6
GREAT SOUTH BAY  0300            79 83  220/  6/  8   N/A
23 SSW MONTAUK P 0250            75 73  200/  6/  8 1012.5          1/ 8
15 E BARNEGAT LI 0300               79                N/A           1/ 8
HUDSON CANYON    0350            80 80              1010.9          1/ 6
KINGS POINT      0300               74                N/A
EXECUTION ROCKS  NOT AVBL
CENTRAL LI SOUND NOT AVBL
EASTERN LI SOUND NOT AVBL
ROBBINS REEF     0312                               1011.1
$$


>>>>>>>>>>>>>>>>>>>>>>>>>>>> KEY <<<<<<<<<<<<<<<<<<<<<<<<<<<
>                                                          <
>     SKY/WX - Sky Condition/Present Weather               <
>     TMP    - Temperature in Fahrenheit                   <
>     DP     - Dew Point in Fahrenheit                     <
>     RH     - Relative Humidity in Percent                <
>     WIND   - Direction (from) and Speed in MPH           <
>     PRES   - Mean Sea Level Pressure (inches of Hg)      <
>     WCI    - Wind Chill Index                            <
>     VSB    - VISIBILITY IN MILES                         <
>     HX     - HEAT INDEX                                  <
>     TC     - TEMPERATURE IN CELSIUS                      <
>     VRB    - VARIABLE WIND DIRECTION                     <
>                                                          <
>>>>>>>>>>>>>>>>>>>>>>>>>>>> KEY <<<<<<<<<<<<<<<<<<<<<<<<<<<




USA.gov is the U.S. government's official web portal to all federal, state and local government web resources and services.